カタログに戻る

COSMOS 1867 COOLANT

運用中LEO
NORAD 39677·DEBRIS·🇷🇺 Russia

打ち上げ Jul 10, 1987 から Baikonur Cosmodrome

Loading…

次のパス (今後24時間)

TLE

最新Source: Space-Track

元期: Sep 13, 2026, 15:27 UTC

1 39677U 87060AQ  26256.64395874  .00000136  00000-0  84852-4 0  9991
2 39677  65.0036 121.4962 0018641 281.4135  78.4856 14.33864241649242

AllMySatでCOSMOS 1867 COOLANTをリアルタイム追跡

Download on the App Store